When you browse on this site, cookies collect data to enhance your experience and personalize the content and advertising you see.
Visit our Privacy Policy to learn more. By continuing to use the site, you agree to this use of cookies and data.
  • In Latvia
  • List of Countries
  • For 7 days
  • Water Temperature
  • Satellite Maps
  • Weather Map
  • Weather Widgets
  • user-avatar
    Login

    Hourly Weather Lozenec

    Today, 22 April, Monday

    Time Temperature Precipitation Wind Pressure Humidity
    00:00 +7°C° 0 mm 2 mps 764 mmHg 69%
    01:00 +8°C° 0 mm 1 mps 763 mmHg 70%
    02:00 +8°C° 0 mm 1 mps 763 mmHg 70%
    03:00 +7°C° 0 mm 1 mps 763 mmHg 71%
    04:00 +7°C° 0 mm 1 mps 763 mmHg 72%
    05:00 +7°C° 0 mm 1 mps 763 mmHg 72%
    06:00 +9°C° 0 mm 1 mps 763 mmHg 67%
    07:00 +10°C° 0 mm 2 mps 763 mmHg 62%
    08:00 +13°C° 0 mm 2 mps 763 mmHg 55%
    09:00 +13°C° 0 mm 3 mps 763 mmHg 53%
    10:00 +14°C° 0 mm 3 mps 763 mmHg 50%
    11:00 +15°C° 0 mm 4 mps 764 mmHg 48%
    12:00 +15°C° 0 mm 4 mps 764 mmHg 49%
    13:00 +15°C° 0 mm 5 mps 764 mmHg 50%
    14:00 +15°C° 0 mm 5 mps 764 mmHg 50%
    15:00 +14°C° 0 mm 5 mps 764 mmHg 51%
    16:00 +13°C° 0 mm 5 mps 764 mmHg 52%
    17:00 +13°C° 0 mm 5 mps 764 mmHg 53%
    18:00 +11°C° 0 mm 4 mps 764 mmHg 57%
    19:00 +8°C° 0 mm 4 mps 764 mmHg 60%
    20:00 +8°C° 0 mm 3 mps 764 mmHg 64%
    21:00 +7°C° 0 mm 3 mps 764 mmHg 66%
    22:00 +7°C° 0 mm 3 mps 765 mmHg 67%
    23:00 +7°C° 0 mm 3 mps 765 mmHg 68%

    Tomorrow, 23 April, Tuesday

    Time Temperature Precipitation Wind Pressure Humidity
    00:00 +7°C° 0 mm 3 mps 765 mmHg 70%
    01:00 +7°C° 0 mm 2 mps 765 mmHg 73%
    02:00 +7°C° 0 mm 2 mps 765 mmHg 75%
    03:00 +7°C° 0 mm 2 mps 765 mmHg 75%
    04:00 +7°C° 0 mm 2 mps 765 mmHg 76%
    05:00 +7°C° 0 mm 2 mps 765 mmHg 76%
    06:00 +8°C° 0 mm 2 mps 765 mmHg 74%
    07:00 +9°C° 0 mm 2 mps 765 mmHg 73%
    08:00 +10°C° 0 mm 3 mps 766 mmHg 71%
    09:00 +11°C° 0 mm 3 mps 766 mmHg 67%
    10:00 +12°C° 0 mm 4 mps 766 mmHg 63%
    11:00 +13°C° 0 mm 4 mps 766 mmHg 59%
    12:00 +13°C° 0 mm 4 mps 766 mmHg 59%
    13:00 +13°C° 0 mm 4 mps 766 mmHg 58%
    14:00 +14°C° 0 mm 4 mps 766 mmHg 58%
    15:00 +13°C° 0 mm 4 mps 766 mmHg 59%
    16:00 +13°C° 0 mm 4 mps 765 mmHg 60%
    17:00 +12°C° 0 mm 4 mps 765 mmHg 61%
    18:00 +12°C° 0 mm 4 mps 765 mmHg 65%
    19:00 +11°C° 0 mm 4 mps 765 mmHg 70%
    20:00 +10°C° 0 mm 4 mps 766 mmHg 74%
    21:00 +10°C° 0.1 mm 4 mps 766 mmHg 78%
    22:00 +9°C° 0.1 mm 3 mps 766 mmHg 81%
    23:00 +9°C° 0.1 mm 3 mps 766 mmHg 85%

    Day after tomorrow, 24 April, Wednesday

    Time Temperature Precipitation Wind Pressure Humidity
    00:00 +9°C° 0.5 mm 3 mps 766 mmHg 87%
    01:00 +9°C° 0.5 mm 3 mps 766 mmHg 90%
    02:00 +9°C° 0.5 mm 3 mps 765 mmHg 92%
    03:00 +9°C° 1.4 mm 3 mps 765 mmHg 93%
    04:00 +9°C° 1.4 mm 3 mps 765 mmHg 94%
    05:00 +9°C° 1.4 mm 3 mps 765 mmHg 95%
    06:00 +10°C° 0.1 mm 3 mps 765 mmHg 92%
    07:00 +11°C° 0.1 mm 3 mps 766 mmHg 89%
    08:00 +13°C° 0.1 mm 2 mps 766 mmHg 87%
    09:00 +13°C° 0 mm 3 mps 766 mmHg 80%
    10:00 +16°C° 0 mm 3 mps 766 mmHg 74%
    11:00 +17°C° 0 mm 3 mps 766 mmHg 67%
    12:00 +18°C° 0 mm 4 mps 766 mmHg 67%
    13:00 +18°C° 0 mm 4 mps 766 mmHg 67%
    14:00 +18°C° 0 mm 4 mps 765 mmHg 67%
    15:00 +17°C° 0 mm 4 mps 765 mmHg 70%
    16:00 +15°C° 0 mm 4 mps 765 mmHg 73%
    17:00 +14°C° 0 mm 4 mps 765 mmHg 77%
    18:00 +13°C° 0 mm 4 mps 765 mmHg 83%
    19:00 +11°C° 0 mm 3 mps 765 mmHg 89%
    20:00 +10°C° 0 mm 2 mps 766 mmHg 95%
    21:00 +9°C° 0 mm 2 mps 766 mmHg 95%
    22:00 +9°C° 0 mm 2 mps 766 mmHg 95%
    23:00 +10°C° 0 mm 1 mps 766 mmHg 95%

    25 April, Thursday

    Time Temperature Precipitation Wind Pressure Humidity
    00:00 +10°C° 0 mm 1 mps 766 mmHg 94%
    01:00 +10°C° 0 mm 1 mps 766 mmHg 94%
    02:00 +10°C° 0 mm 1 mps 766 mmHg 94%
    03:00 +10°C° 0 mm 1 mps 766 mmHg 94%
    04:00 +9°C° 0 mm 1 mps 766 mmHg 94%
    05:00 +9°C° 0 mm 1 mps 766 mmHg 94%
    06:00 +11°C° 0 mm 1 mps 766 mmHg 88%
    07:00 +12°C° 0 mm 2 mps 766 mmHg 83%
    08:00 +14°C° 0 mm 2 mps 766 mmHg 77%
    09:00 +15°C° 0 mm 2 mps 766 mmHg 73%
    10:00 +16°C° 0 mm 2 mps 766 mmHg 69%
    11:00 +17°C° 0 mm 3 mps 766 mmHg 64%
    12:00 +18°C° 0 mm 3 mps 766 mmHg 64%
    13:00 +18°C° 0 mm 3 mps 766 mmHg 64%
    14:00 +18°C° 0 mm 4 mps 765 mmHg 64%
    15:00 +17°C° 0 mm 3 mps 765 mmHg 67%
    16:00 +16°C° 0 mm 3 mps 765 mmHg 69%
    17:00 +14°C° 0 mm 3 mps 765 mmHg 72%
    18:00 +13°C° 0 mm 3 mps 765 mmHg 80%
    19:00 +12°C° 0 mm 2 mps 765 mmHg 87%
    20:00 +10°C° 0 mm 2 mps 765 mmHg 95%
    21:00 +9°C° 0 mm 2 mps 765 mmHg 95%
    22:00 +10°C° 0 mm 1 mps 765 mmHg 95%
    23:00 +10°C° 0 mm 1 mps 765 mmHg 95%

    26 April, Friday

    Time Temperature Precipitation Wind Pressure Humidity
    00:00 +10°C° 0 mm 1 mps 765 mmHg 94%
    01:00 +9°C° 0 mm 1 mps 764 mmHg 94%
    02:00 +9°C° 0 mm 1 mps 764 mmHg 94%
    03:00 +9°C° 0 mm 1 mps 764 mmHg 94%
    04:00 +9°C° 0 mm 1 mps 764 mmHg 94%
    05:00 +9°C° 0 mm 1 mps 764 mmHg 94%
    06:00 +11°C° 0 mm 1 mps 764 mmHg 88%
    07:00 +12°C° 0 mm 2 mps 764 mmHg 81%
    08:00 +14°C° 0 mm 2 mps 764 mmHg 75%
    09:00 +15°C° 0 mm 2 mps 764 mmHg 69%
    10:00 +16°C° 0 mm 3 mps 764 mmHg 64%
    11:00 +17°C° 0 mm 3 mps 764 mmHg 59%
    12:00 +17°C° 0 mm 3 mps 764 mmHg 58%
    13:00 +18°C° 0 mm 3 mps 763 mmHg 57%
    14:00 +18°C° 0 mm 3 mps 763 mmHg 57%
    15:00 +17°C° 0 mm 3 mps 763 mmHg 60%
    16:00 +16°C° 0 mm 3 mps 763 mmHg 62%
    17:00 +16°C° 0 mm 3 mps 762 mmHg 65%
    18:00 +14°C° 0 mm 2 mps 763 mmHg 73%
    19:00 +12°C° 0 mm 2 mps 763 mmHg 81%
    20:00 +10°C° 0 mm 1 mps 763 mmHg 89%
    21:00 +10°C° 0 mm 1 mps 763 mmHg 90%
    22:00 +10°C° 0 mm 1 mps 763 mmHg 90%
    23:00 +9°C° 0 mm 0 mps 763 mmHg 90%

    27 April, Saturday

    Time Temperature Precipitation Wind Pressure Humidity
    00:00 +9°C° 0 mm 0 mps 762 mmHg 90%
    01:00 +8°C° 0 mm 0 mps 762 mmHg 91%
    02:00 +8°C° 0 mm 0 mps 762 mmHg 91%
    03:00 +8°C° 0 mm 0 mps 761 mmHg 90%
    04:00 +8°C° 0 mm 0 mps 761 mmHg 90%
    05:00 +8°C° 0 mm 0 mps 761 mmHg 90%
    06:00 +10°C° 0 mm 0 mps 761 mmHg 83%
    07:00 +13°C° 0 mm 1 mps 761 mmHg 77%
    08:00 +15°C° 0 mm 1 mps 761 mmHg 70%
    09:00 +16°C° 0 mm 2 mps 761 mmHg 64%
    10:00 +17°C° 0 mm 2 mps 761 mmHg 59%
    11:00 +19°C° 0 mm 3 mps 761 mmHg 53%
    12:00 +19°C° 0 mm 3 mps 760 mmHg 52%
    13:00 +19°C° 0 mm 3 mps 760 mmHg 51%
    14:00 +19°C° 0 mm 3 mps 759 mmHg 50%
    15:00 +18°C° 0 mm 3 mps 759 mmHg 53%
    16:00 +17°C° 0 mm 3 mps 759 mmHg 56%
    17:00 +16°C° 0 mm 3 mps 759 mmHg 59%
    18:00 +14°C° 0 mm 3 mps 759 mmHg 67%
    19:00 +13°C° 0 mm 2 mps 759 mmHg 74%
    20:00 +10°C° 0 mm 2 mps 759 mmHg 82%
    21:00 +10°C° 0 mm 2 mps 759 mmHg 82%
    22:00 +10°C° 0 mm 1 mps 759 mmHg 81%
    23:00 +10°C° 0 mm 1 mps 759 mmHg 81%
    Show more